Weather Roundup
Issued by NWS

Home | Current Version | Previous Version | Text Only | Print | Product List | Glossary On
Versions: 1 2 3 4 5 6 7 8 9 10 11 12 13 14 15 16 17 18 19 20 21 22 23 24 25 26 27 28 29 30 31 32 33 34 35 36 37 38 39 40 41 42 43 44 45 46 47 48 49 50
074
NZUS93 KARX 061710
HRRWXR

CURRENT HOURLY OBSERVATIONS ACROSS
MUCH OF THE UPPER MISSISSIPPI VALLEY
NATIONAL WEATHER SERVICE LA CROSSE WI
1200 PM CDT FRI MAY 06 2016


...SOUTHEAST MINNESOTA...


CITY           SKY/WX    TMP DP  RH WIND       PRES   REMARKS
ROCHESTER      SUNNY     85  43  22 W20G30    29.89F
ROCHESTER/MAYO FAIR      82  42  24 SW18G28   29.87F
WINONA         SUNNY     82  43  24 NW8       29.86F
AUSTIN         SUNNY     82  41  23 W14G24    29.89F
ALBERT LEA     SUNNY     84  39  20 SW16G22   29.89F
DODGE CENTER   SUNNY     82  43  24 W20G28    29.88F
PRESTON        SUNNY     81  42  25 W20G28    29.91F
OWATONNA       SUNNY     88  39  18 SW25G31   29.86F
FARIBAULT      SUNNY     84  48  28 SW12G22   29.86F
$$

...ELSEWHERE IN MINNESOTA...


CITY           SKY/WX    TMP DP  RH WIND       PRES   REMARKS
MINNEAPOLIS    MOSUNNY   82  49  31 W13G21    29.82F
INTNL FALLS    SUNNY     82  47  29 W14       29.65S
DULUTH         SUNNY     88  42  20 SW18G26   29.73F
RED WING       SUNNY     88  46  23 W13       29.82F
REDWOOD FALLS  SUNNY     85  48  27 SW28G38   29.79F
MANKATO        SUNNY     84  46  26 SW22      29.85F
WORTHINGTON    SUNNY     79  50  36 SW26G33   29.88F
FAIRMONT       SUNNY     81  45  28 SW22G32   29.88F
$$

...SOUTHWEST WISCONSIN...


CITY           SKY/WX    TMP DP  RH WIND       PRES   REMARKS
LA CROSSE      SUNNY     79  49  34 SE6       29.86F
PRAIRIE DU CHI SUNNY     79  44  28 S3        29.90F
BOSCOBEL       SUNNY     78  47  33 S8        29.91F
LONE ROCK      SUNNY     75  48  38 W9        29.91F
PLATTEVILLE    SUNNY     74  47  38 SW12      29.95S
FORT MC COY    SUNNY     79  45  30 W8        29.88F
CAMP DOUGLAS   SUNNY     79  52  38 W8        29.87F
MAUSTON-NEW LI SUNNY     78  47  33 CALM      29.87F
VIROQUA        FAIR      79  43  28 W7        29.91F
WIS DELLS      SUNNY     75  42  31 SW9       29.90F
$$

...ELSEWHERE IN WISCONSIN...


CITY           SKY/WX    TMP DP  RH WIND       PRES   REMARKS
MILWAUKEE      MOSUNNY   74  41  30 S9        29.90F
MADISON        MOSUNNY   72  46  39 SW5       29.90F
GREEN BAY      SUNNY     74  49  41 SW9       29.83F
EAU CLAIRE     SUNNY     84  46  26 W14       29.82F
BLACK RVR FLS  FAIR      84  40  21 W9G16     29.85F
MEDFORD        SUNNY     78  46  31 W13       29.84F
WAUSAU         SUNNY     81  46  29 NW5       29.82F
WIS RAPIDS     SUNNY     80  40  23 SW7       29.87F
MARSHFIELD     SUNNY     82  47  29 W12G20    29.84F
RICE LAKE      SUNNY     83  43  23 S13       29.82F
$$

...NORTHEAST IOWA...


CITY           SKY/WX    TMP DP  RH WIND       PRES   REMARKS
WATERLOO       SUNNY     81  47  30 W13       29.93F
DUBUQUE        SUNNY     75  48  38 W10G18    29.96F
DECORAH        SUNNY     84  43  23 W13G21    29.90F
MASON CITY     SUNNY     82  45  27 SW16      29.93F
CHARLES CITY   SUNNY     84  41  21 W17G25    29.93F
OELWEIN        SUNNY     81  48  32 W14       29.94F
$$

...ELSEWHERE IN IOWA...


CITY           SKY/WX    TMP DP  RH WIND       PRES   REMARKS
DES MOINES     MOSUNNY   81  46  29 W12       29.99F
IOWA CITY      SUNNY     77  50  38 W10       29.98F
FORT DODGE     SUNNY     81  50  34 W20G25    29.96S
MARSHALLTOWN   SUNNY     79  49  34 W14G22    29.96F
CEDAR RAPIDS   SUNNY     78  51  38 W12G20    29.95F
$$

...NORTHERN ILLINOIS...


CITY           SKY/WX    TMP DP  RH WIND       PRES   REMARKS
CHICAGO-OHARE  MOSUNNY   71  40  32 SW9       29.94F
CHICAGO-MIDWAY PTSUNNY   69  41  36 S10       29.96F
MOLINE         SUNNY     76  46  34 NW8       29.98F
ROCKFORD       MOSUNNY   74  48  39 SW7       29.95F
PEORIA         SUNNY     73  42  32 W8        30.00F
$$

NOTE: "FAIR" INDICATES FEW OR NO CLOUDS BELOW 12,000 FEET WITH NO
SIGNIFICANT WEATHER AND/OR OBSTRUCTIONS TO VISIBILITY. WIND
SPEEDS ARE IN MILES-PER-HOUR.




USA.gov is the U.S. government's official web portal to all federal, state and local government web resources and services.